PHWVO EHAM-EHAM

Flight info

Callsign PHWVO
Flight time 0h 22m
Altitude 1000
Route VFR
Aircraft C172/L-SD/L1

Departure

Time 2026-05-07 16:57
Airport Amsterdam Airport Schiphol (EHAM)

Arrival

Time 2026-05-07 17:20
Airport Amsterdam Airport Schiphol (EHAM)
Time Latitude Longitude Altitude Speed Heading
2026-05-07 16:50 52.30022 4.78878 -6 ft 0 kts 133°
2026-05-07 16:53 52.30017 4.78887 -6 ft 1 kts 122°
2026-05-07 16:53 52.30043 4.78827 -6 ft 17 kts 308°
2026-05-07 16:53 52.30046 4.78686 -6 ft 9 kts 258°
2026-05-07 16:54 52.30059 4.78595 -6 ft 13 kts 312°
2026-05-07 16:54 52.30139 4.78490 -6 ft 12 kts 47°
2026-05-07 16:54 52.30165 4.78532 -6 ft 0 kts 39°
2026-05-07 16:54 52.30166 4.78534 -6 ft 0 kts 39°
2026-05-07 16:55 52.30167 4.78536 -6 ft 0 kts 39°
2026-05-07 16:55 52.30168 4.78536 -6 ft 0 kts 39°
2026-05-07 16:56 52.30347 4.78799 -6 ft 64 kts 41°
2026-05-07 16:56 52.30845 4.80227 351 ft 91 kts 123°
2026-05-07 16:57 52.30381 4.80943 573 ft 98 kts 139°
2026-05-07 16:57 52.29740 4.80694 703 ft 112 kts 221°
2026-05-07 16:57 52.29471 4.79581 546 ft 107 kts 277°
2026-05-07 16:57 52.29786 4.78558 222 ft 93 kts 319°
2026-05-07 16:58 52.30272 4.78692 17 ft 70 kts 42°
2026-05-07 16:58 52.30579 4.79126 -6 ft 55 kts 38°
2026-05-07 16:58 52.30899 4.79640 146 ft 72 kts 51°
2026-05-07 16:58 52.30772 4.80391 392 ft 80 kts 123°
2026-05-07 16:59 52.30416 4.81098 615 ft 86 kts 163°
2026-05-07 16:59 52.30115 4.80501 482 ft 86 kts 261°
2026-05-07 16:59 52.30118 4.79513 339 ft 83 kts 304°
2026-05-07 16:59 52.30522 4.79070 111 ft 69 kts 29°
2026-05-07 17:00 52.30857 4.79527 -5 ft 52 kts 47°
2026-05-07 17:00 52.31131 4.79957 80 ft 63 kts 44°
2026-05-07 17:00 52.31439 4.80580 250 ft 79 kts 85°
2026-05-07 17:00 52.31068 4.81371 431 ft 96 kts 159°
2026-05-07 17:01 52.30470 4.80830 598 ft 108 kts 222°
2026-05-07 17:01 52.29857 4.79964 620 ft 126 kts 221°
2026-05-07 17:01 52.29472 4.78874 581 ft 102 kts 304°
2026-05-07 17:01 52.30046 4.78392 142 ft 102 kts 30°
2026-05-07 17:02 52.30553 4.79092 0 ft 82 kts 41°
2026-05-07 17:02 52.30933 4.79640 -4 ft 74 kts 40°
2026-05-07 17:02 52.31343 4.80265 211 ft 83 kts 50°
2026-05-07 17:02 52.31151 4.81127 445 ft 92 kts 138°
2026-05-07 17:03 52.30533 4.80905 592 ft 102 kts 214°
2026-05-07 17:03 52.29868 4.80400 674 ft 109 kts 183°
2026-05-07 17:03 52.29151 4.80764 775 ft 108 kts 136°
2026-05-07 17:03 52.28859 4.81851 856 ft 104 kts 78°
2026-05-07 17:04 52.29362 4.82519 963 ft 104 kts
2026-05-07 17:04 52.29970 4.81766 858 ft 123 kts 298°
2026-05-07 17:04 52.29946 4.80433 725 ft 128 kts 245°
2026-05-07 17:04 52.29308 4.79541 625 ft 128 kts 197°
2026-05-07 17:05 52.28507 4.79623 545 ft 114 kts 152°
2026-05-07 17:05 52.28154 4.80567 577 ft 90 kts 70°
2026-05-07 17:05 52.28726 4.80686 648 ft 104 kts 317°
2026-05-07 17:05 52.29131 4.79682 572 ft 105 kts 313°
2026-05-07 17:06 52.29619 4.78815 288 ft 102 kts 319°
2026-05-07 17:06 52.30174 4.78531 75 ft 84 kts 43°
2026-05-07 17:06 52.30578 4.79129 -5 ft 66 kts 43°
2026-05-07 17:06 52.30946 4.79652 153 ft 72 kts 42°
2026-05-07 17:07 52.31303 4.80264 415 ft 75 kts 57°
2026-05-07 17:07 52.31274 4.81161 494 ft 103 kts 121°
2026-05-07 17:07 52.30641 4.81679 495 ft 111 kts 194°
2026-05-07 17:07 52.29987 4.80888 603 ft 121 kts 221°
2026-05-07 17:08 52.29504 4.79843 591 ft 106 kts 268°
2026-05-07 17:08 52.29729 4.78714 250 ft 100 kts 320°
2026-05-07 17:08 52.30237 4.78599 71 ft 80 kts 47°
2026-05-07 17:08 52.30617 4.79183 -6 ft 65 kts 42°
2026-05-07 17:09 52.31011 4.79739 178 ft 78 kts 41°
2026-05-07 17:09 52.31050 4.80516 404 ft 87 kts 127°
2026-05-07 17:09 52.30551 4.81103 606 ft 98 kts 184°
2026-05-07 17:09 52.29943 4.80376 672 ft 116 kts 220°
2026-05-07 17:10 52.29527 4.79279 556 ft 107 kts 284°
2026-05-07 17:10 52.29925 4.78379 287 ft 86 kts 357°
2026-05-07 17:10 52.30403 4.78873 15 ft 72 kts 43°
2026-05-07 17:10 52.30716 4.79326 -6 ft 50 kts 42°
2026-05-07 17:11 52.31018 4.79778 146 ft 66 kts 42°
2026-05-07 17:11 52.31348 4.80417 316 ft 82 kts 93°
2026-05-07 17:11 52.30991 4.81270 476 ft 95 kts 130°
2026-05-07 17:11 52.30410 4.81159 574 ft 95 kts 221°
2026-05-07 17:12 52.29916 4.80378 590 ft 101 kts 226°
2026-05-07 17:12 52.29529 4.79458 562 ft 90 kts 276°
2026-05-07 17:12 52.29772 4.78545 347 ft 85 kts 300°
2026-05-07 17:12 52.30230 4.78623 53 ft 82 kts 45°
2026-05-07 17:13 52.30613 4.79179 0 ft 62 kts 39°
2026-05-07 17:13 52.30909 4.79599 24 ft 59 kts 43°
2026-05-07 17:13 52.31226 4.80058 246 ft 66 kts 39°
2026-05-07 17:13 52.31301 4.80815 342 ft 94 kts 122°
2026-05-07 17:14 52.30838 4.81549 502 ft 90 kts 172°
2026-05-07 17:14 52.30300 4.80969 594 ft 102 kts 220°
2026-05-07 17:14 52.29775 4.80203 575 ft 112 kts 224°
2026-05-07 17:14 52.29572 4.79182 510 ft 89 kts 299°
2026-05-07 17:15 52.29965 4.78410 222 ft 82 kts
2026-05-07 17:15 52.30420 4.78902 24 ft 76 kts 42°
2026-05-07 17:15 52.30781 4.79422 -6 ft 57 kts 41°
2026-05-07 17:15 52.31126 4.79915 124 ft 75 kts 41°
2026-05-07 17:16 52.31414 4.80623 359 ft 83 kts 102°
2026-05-07 17:16 52.31030 4.81378 564 ft 89 kts 142°
2026-05-07 17:16 52.30412 4.81141 685 ft 105 kts 213°
2026-05-07 17:16 52.29831 4.80311 734 ft 105 kts 229°
2026-05-07 17:17 52.29491 4.79282 470 ft 99 kts 272°
2026-05-07 17:17 52.29806 4.78369 243 ft 86 kts 338°
2026-05-07 17:17 52.30288 4.78722 38 ft 77 kts 42°
2026-05-07 17:17 52.30651 4.79230 -5 ft 58 kts 43°
2026-05-07 17:18 52.30974 4.79683 76 ft 69 kts 43°
2026-05-07 17:18 52.31345 4.80306 265 ft 82 kts 61°
2026-05-07 17:18 52.31133 4.81194 473 ft 94 kts 130°
2026-05-07 17:18 52.30532 4.81152 687 ft 104 kts 216°
2026-05-07 17:19 52.29927 4.80325 591 ft 115 kts 224°
2026-05-07 17:19 52.29573 4.79287 407 ft 98 kts 275°
2026-05-07 17:19 52.29836 4.78385 240 ft 78 kts 331°
2026-05-07 17:19 52.30265 4.78675 11 ft 66 kts 43°
2026-05-07 17:20 52.30519 4.79042 -6 ft 16 kts 40°
2026-05-07 17:20 52.30528 4.79053 -6 ft 0 kts 41°
2026-05-07 17:21 52.30544 4.79075 -6 ft 20 kts 43°
2026-05-07 17:21 52.30810 4.79456 38 ft 68 kts 43°
2026-05-07 17:22 52.31198 4.80047 233 ft 81 kts 42°
2026-05-07 17:22 52.31183 4.80895 438 ft 94 kts 134°
2026-05-07 17:22 52.30564 4.81330 697 ft 96 kts 147°
2026-05-07 17:22 52.30089 4.82074 905 ft 99 kts 126°
2026-05-07 17:23 52.29631 4.82957 1158 ft 97 kts 123°
2026-05-07 17:23 52.29243 4.83870 1340 ft 103 kts 120°
2026-05-07 17:23 52.28780 4.84900 1352 ft 119 kts 122°
2026-05-07 17:23 52.28248 4.86045 1348 ft 124 kts 128°
2026-05-07 17:24 52.27667 4.87101 1335 ft 122 kts 128°
2026-05-07 17:24 52.27087 4.88158 1269 ft 123 kts 128°
2026-05-07 17:24 52.26522 4.89226 1253 ft 122 kts 127°
2026-05-07 17:24 52.25938 4.90278 1118 ft 130 kts 129°
2026-05-07 17:25 52.25334 4.91369 993 ft 127 kts 129°
2026-05-07 17:25 52.24759 4.92391 992 ft 114 kts 129°
2026-05-07 17:25 52.24228 4.93325 996 ft 107 kts 129°
2026-05-07 17:25 52.23727 4.94203 998 ft 103 kts 129°
2026-05-07 17:26 52.23237 4.95062 999 ft 101 kts 129°
2026-05-07 17:26 52.22752 4.95911 999 ft 100 kts 129°
2026-05-07 17:26 52.22274 4.96746 1000 ft 99 kts 129°
2026-05-07 17:26 52.21892 4.97666 998 ft 94 kts 100°
2026-05-07 17:27 52.21996 4.98679 999 ft 90 kts 55°
2026-05-07 17:27 52.22518 4.99217 999 ft 90 kts 10°
2026-05-07 17:27 52.23122 4.98960 1001 ft 93 kts 332°
2026-05-07 17:27 52.23661 4.98323 1000 ft 94 kts 326°
2026-05-07 17:28 52.24201 4.97712 999 ft 93 kts 341°
2026-05-07 17:28 52.24826 4.97459 1000 ft 91 kts 353°
2026-05-07 17:28 52.25464 4.97436 999 ft 90 kts 17°
2026-05-07 17:28 52.26050 4.97788 1000 ft 89 kts 23°
2026-05-07 17:29 52.26629 4.98186 1000 ft 90 kts 24°
2026-05-07 17:29 52.27212 4.98593 1000 ft 90 kts 25°
2026-05-07 17:29 52.27720 4.99207 1000 ft 89 kts 42°
2026-05-07 17:29 52.28210 4.99860 1000 ft 89 kts 38°
2026-05-07 17:30 52.28757 5.00367 1000 ft 90 kts 22°
2026-05-07 17:30 52.29278 5.00940 998 ft 89 kts 27°
2026-05-07 17:30 52.29910 5.01022 1000 ft 91 kts 358°
2026-05-07 17:30 52.30550 5.00981 1000 ft 91 kts
2026-05-07 17:31 52.31181 5.00946 1000 ft 91 kts
2026-05-07 17:31 52.31825 5.00911 1000 ft 91 kts
2026-05-07 17:31 52.32464 5.00875 1000 ft 91 kts
2026-05-07 17:31 52.33104 5.00839 1000 ft 91 kts
2026-05-07 17:32 52.33734 5.00611 998 ft 94 kts 330°
2026-05-07 17:32 52.34101 4.99692 998 ft 99 kts 285°
2026-05-07 17:32 52.34121 4.98538 1001 ft 101 kts 271°
2026-05-07 17:32 52.34086 4.97364 1000 ft 101 kts 270°
2026-05-07 17:33 52.34048 4.96201 1000 ft 101 kts 270°
2026-05-07 17:33 52.34009 4.95045 1000 ft 101 kts 270°
2026-05-07 17:33 52.33977 4.93885 999 ft 101 kts 276°
2026-05-07 17:33 52.34267 4.92877 1000 ft 95 kts 318°
2026-05-07 17:34 52.34759 4.92145 1000 ft 95 kts 324°
2026-05-07 17:34 52.35290 4.91475 1000 ft 94 kts 333°
2026-05-07 17:34 52.35871 4.90967 998 ft 93 kts 335°
2026-05-07 17:34 52.36272 4.90108 998 ft 99 kts 289°
2026-05-07 17:35 52.36197 4.88970 1000 ft 102 kts 249°
2026-05-07 17:35 52.35870 4.87924 1001 ft 103 kts 243°
2026-05-07 17:35 52.35522 4.86884 1000 ft 103 kts 245°
2026-05-07 17:35 52.35466 4.85739 999 ft 99 kts 291°
2026-05-07 17:36 52.35878 4.84913 999 ft 93 kts 336°
2026-05-07 17:36 52.36509 4.84836 998 ft 89 kts 21°
2026-05-07 17:36 52.36980 4.85489 1000 ft 89 kts 51°
2026-05-07 17:36 52.37345 4.86327 1000 ft 89 kts 55°
2026-05-07 17:37 52.37648 4.87233 1001 ft 90 kts 61°
2026-05-07 17:37 52.37934 4.88160 1000 ft 90 kts 61°
2026-05-07 17:37 52.38211 4.89098 1000 ft 91 kts 69°
2026-05-07 17:37 52.38139 4.90132 999 ft 96 kts 115°
2026-05-07 17:38 52.37610 4.90816 1000 ft 101 kts 159°
2026-05-07 17:38 52.36897 4.90720 998 ft 104 kts 205°
2026-05-07 17:38 52.36379 4.89896 1001 ft 103 kts 237°
2026-05-07 17:38 52.35989 4.88910 1000 ft 103 kts 239°
2026-05-07 17:39 52.35610 4.87891 1000 ft 103 kts 241°
2026-05-07 17:39 52.35242 4.86851 999 ft 103 kts 244°
2026-05-07 17:39 52.35165 4.85718 998 ft 99 kts 289°
2026-05-07 17:39 52.35566 4.84859 999 ft 93 kts 334°
2026-05-07 17:40 52.36187 4.84747 999 ft 89 kts 19°
2026-05-07 17:40 52.36657 4.85407 1000 ft 89 kts 56°
2026-05-07 17:40 52.36959 4.86305 1000 ft 90 kts 61°
2026-05-07 17:40 52.37097 4.87314 998 ft 93 kts 96°
2026-05-07 17:41 52.36734 4.88219 999 ft 98 kts 141°
2026-05-07 17:41 52.36059 4.88501 1001 ft 102 kts 178°
2026-05-07 17:41 52.35384 4.88100 999 ft 104 kts 219°
2026-05-07 17:41 52.34810 4.87206 1009 ft 122 kts 226°
2026-05-07 17:42 52.34177 4.86148 1005 ft 134 kts 226°
2026-05-07 17:42 52.33515 4.85032 1002 ft 139 kts 226°
2026-05-07 17:42 52.32835 4.83882 1001 ft 141 kts 226°
2026-05-07 17:42 52.32134 4.82697 1000 ft 142 kts 226°
2026-05-07 17:43 52.31451 4.81542 994 ft 128 kts 227°
2026-05-07 17:43 52.30825 4.80872 963 ft 94 kts 180°
2026-05-07 17:43 52.30250 4.80582 960 ft 84 kts 211°
2026-05-07 17:43 52.29738 4.80057 966 ft 86 kts 208°
2026-05-07 17:44 52.29171 4.80035 966 ft 83 kts 145°
2026-05-07 17:44 52.28957 4.80823 967 ft 76 kts 82°
2026-05-07 17:44 52.29012 4.81674 1014 ft 71 kts 83°
2026-05-07 17:44 52.29161 4.82481 990 ft 74 kts 54°
2026-05-07 17:45 52.29646 4.82668 943 ft 84 kts 335°
2026-05-07 17:45 52.29845 4.81792 891 ft 91 kts 253°
2026-05-07 17:45 52.29356 4.81222 887 ft 90 kts 176°
2026-05-07 17:45 52.28867 4.81729 896 ft 82 kts 115°
2026-05-07 17:46 52.28814 4.82612 894 ft 79 kts 56°
2026-05-07 17:46 52.29308 4.82889 898 ft 82 kts 345°
2026-05-07 17:46 52.29455 4.82036 774 ft 103 kts 239°
2026-05-07 17:46 52.29157 4.81182 778 ft 78 kts 268°
2026-05-07 17:47 52.29178 4.80268 600 ft 76 kts 285°
2026-05-07 17:47 52.29366 4.79453 358 ft 74 kts 307°
2026-05-07 17:47 52.29653 4.78819 223 ft 62 kts 317°
2026-05-07 17:47 52.30006 4.78437 96 ft 58 kts
2026-05-07 17:48 52.30313 4.78756 0 ft 44 kts 36°
2026-05-07 17:48 52.30523 4.79051 -6 ft 39 kts 40°
2026-05-07 17:48 52.30737 4.79351 -6 ft 40 kts 43°
2026-05-07 17:48 52.30946 4.79647 -6 ft 38 kts 40°
2026-05-07 17:49 52.31131 4.79922 -6 ft 31 kts 51°
2026-05-07 17:49 52.31115 4.80138 -6 ft 2 kts 133°
2026-05-07 17:50 52.31108 4.80151 -6 ft 9 kts 133°
2026-05-07 17:50 52.31050 4.80319 -6 ft 15 kts 47°
2026-05-07 17:51 52.31090 4.80314 -6 ft 5 kts 312°
2026-05-07 17:51 52.31099 4.80298 -6 ft 0 kts 313°